Location: Newark
(46.7000°N, 60.6000°W)
Time: 03:13:36
(UTC+00:00)

A-11 Canister half - Pass Details

Date: 27 October 2020
Orbit: 1525 x 1683 km, 47.3° (Epoch: 23 November)

Event Time Altitude Azimuth Distance (km) Brightness Sun altitude
Rises 20:35:03 0° 258° (WSW) 4,755 14.0 2.2°
Reaches altitude 10° 20:38:09 10° 258° (WSW) 3,753 13.2 1.7°
Maximum altitude 20:47:39 90° 357° (N) 1,540 9.1 0.2°
Drops below altitude 10° 20:56:59 10° 82° (E) 3,694 10.4 -1.3°
Enters shadow 20:59:35 - 82° (E) 4,536 10.8 -1.8°
Sets 21:00:01 0° 83° (E) 4,677 - -1.8°
